[[{"header":{"parameterUnit":"m.s-1","parameterCategory":1,"la1":30.2991,"la2":30.254,"lo1":-89.0895,"lo2":-89.0444,"dy":0.0017,"dx":0.0017,"nx":28,"ny":28,"refTime":"2023-08-09T21:00:00:Z","depth":0,"parameterNumber":2,"parameterNumberName":"U-component_of_WINDS"},"data":[0,0,0,0,0,0,0,0,0,0,0,0,0,0,0,0,0,0,0,0,0,0,0,0,0,0,0,0,0,0,0,0,0,0,0,0,0,0,0,0,0,0,0,0,0,0,0,0,0,0,0,0,0,0,0,0,0,0,5.7435,5.7437,0,5.7569,5.757,5.7572,5.7527,5.7524,5.7521,5.7519,5.7653,5.7659,5.7666,0,0,0,0,0,0,0,0,0,0,0,0,0,5.7139,5.7145,5.7435,5.7437,5.7439,5.7568,5.757,5.7572,5.7528,5.7524,5.7521,5.7517,5.7651,5.7659,5.7666,0,0,0,0,0,0,0,0,0,0,0,0,0,5.7269,5.7147,5.7435,5.7432,5.7433,5.7568,5.757,5.7573,5.7528,5.7524,5.752,5.7516,5.7649,5.7658,5.7667,5.7812,0,0,5.7696,5.77,0,0,0,0,0,0,0,0,5.7262,5.728,5.7431,5.7433,5.7434,5.7527,5.7515,5.7653,5.7529,5.7492,5.7518,5.7513,5.7615,5.7627,5.7661,5.7819,5.7824,5.7697,5.7703,5.7707,5.7709,0,0,0,0,0,0,0,5.7253,5.7274,5.7488,5.7433,5.7435,5.7423,5.7437,5.7541,5.7576,5.7495,5.7492,5.7509,5.7615,5.7652,5.7664,5.7826,5.7697,5.7705,5.7711,5.7714,5.8106,5.8111,0,0,0,0,0,0,5.7244,5.7267,5.7484,5.7492,5.7336,5.7432,5.7447,5.7501,5.7575,5.7582,5.7512,5.7506,5.7638,5.7653,5.7668,5.7841,5.7707,5.7715,5.7721,5.8102,5.8107,5.8113,0,0,0,0,0,0,5.7237,5.7263,5.7478,5.7379,5.7405,5.7442,5.7503,5.7506,5.7544,5.7588,5.7593,5.7544,5.7635,5.7655,5.7776,5.7845,5.772,5.7728,5.8096,5.8103,5.811,5.8188,0,0,0,0,0,0,5.7229,5.7261,5.7318,5.7381,5.7411,5.7585,5.7507,5.7512,5.756,5.7554,5.7619,5.7626,5.7633,5.7762,5.7786,5.7855,5.7736,5.809,5.8099,5.8108,5.8179,5.8197,5.8211,0,0,0,0,0,5.7219,5.7335,5.7321,5.7347,5.7482,5.7589,5.7606,5.7613,5.7566,5.7622,5.765,5.7624,5.7834,5.7775,5.7801,5.7875,5.8086,5.8097,5.8107,5.8172,5.8193,5.8211,0,0,0,0,0,0,5.7279,5.7343,5.7328,5.7468,5.7524,5.7581,5.7652,5.7636,5.7705,5.7696,5.7701,5.7716,5.784,5.787,5.7803,5.8017,5.7953,5.7969,5.7993,5.8014,5.803,5.8019,5.7743,0,0,0,0,0,5.7308,5.7391,5.7442,5.756,5.7589,5.7616,5.7663,5.7663,5.7721,5.7744,5.7781,5.7837,5.7915,5.7966,5.8041,5.8184,5.8196,5.8247,5.8263,5.8276,5.829,5.8364,5.8387,5.8148,5.8148,5.8147,0,0,5.737,5.7415,5.7467,5.7574,5.7616,5.77,5.7636,5.7728,5.779,5.7757,5.7873,5.7903,5.7965,5.8097,5.8157,5.8126,5.8359,5.829,5.83,5.8306,5.8378,5.84,5.842,5.8155,5.8154,5.8153,0,0,5.7525,5.7569,5.767,5.7715,5.778,5.7798,5.7822,5.7883,5.7901,5.8017,5.7994,5.8067,5.8203,5.8247,5.8288,5.8458,5.8436,5.8483,5.8566,5.8639,5.8658,5.8675,5.8733,5.8754,5.8496,5.8497,5.8497,0,5.7593,5.7719,5.7725,5.7818,5.7865,5.784,5.7942,5.7984,5.8071,5.8103,5.8067,5.8235,5.8276,5.8416,5.8458,5.8493,5.8519,5.8474,5.8655,5.8672,5.8687,5.8743,5.8765,5.8502,5.8501,5.85,5.85,0,5.7798,5.7886,5.796,5.8044,5.8099,5.8197,5.8216,5.8271,5.8266,5.8287,5.8404,5.8452,5.8535,5.8569,5.8566,5.8708,5.8686,5.8653,5.8588,5.8715,5.8767,5.8788,5.8509,5.8507,5.8505,5.8504,0,0,5.7993,5.8079,5.8106,5.8142,5.8213,5.828,5.8376,5.8457,5.8502,5.8563,5.8641,5.8756,5.8725,5.8771,5.8773,5.8837,5.8965,5.8795,5.8797,5.8823,5.9122,5.9145,5.9169,5.8952,5.8956,5.8959,5.9116,0,5.8152,5.832,5.8327,5.848,5.8559,5.8536,5.8619,5.867,5.8692,5.8761,5.8785,5.8865,5.882,5.8847,5.891,5.8936,5.9025,5.8925,5.9022,5.9026,5.9005,5.9197,5.9222,5.9368,5.9137,5.914,5.9143,0,5.8359,5.8425,5.8585,5.8642,5.8676,5.875,5.8824,5.8892,5.8948,5.8959,5.901,5.9002,5.9098,5.9031,5.9162,5.9094,5.9134,5.9153,5.9159,5.9166,5.909,5.9207,5.9415,5.9435,5.9175,5.9172,5.917,0,5.8481,5.8611,5.8723,5.8756,5.8826,5.8878,5.8909,5.8962,5.901,5.9074,5.9104,5.9179,5.922,5.9277,5.9288,5.9239,5.9419,5.9353,5.9428,5.9428,5.9465,5.9462,5.9679,5.9496,5.9496,5.9495,5.9495,0,5.8656,5.8754,5.8779,5.8847,5.8956,5.8963,5.907,5.9098,5.9145,5.9217,5.9203,5.927,5.9283,5.9353,5.9363,5.9468,5.9487,5.9497,5.9498,5.9497,5.9495,5.9521,5.951,5.9501,5.95,5.9499,5.9498,0,5.881,5.8832,5.8951,5.9008,5.9024,5.9101,5.9148,5.9213,5.9233,5.9324,5.9346,5.9377,5.9459,5.9476,5.9574,5.958,5.9704,5.9696,5.9685,5.9683,5.9756,5.9747,5.9995,6.0027,5.9825,5.9827,5.9829,0,5.8919,5.8994,5.9058,5.9105,5.9139,5.9216,5.9264,5.9274,5.9324,5.9394,5.945,5.953,5.9594,5.9726,5.9756,5.983,5.9822,5.9904,5.9833,5.9828,5.9819,5.9814,5.982,5.9916,5.9919,5.992,5.9922,0,5.9108,5.9115,5.9185,5.9259,5.9317,5.9375,5.9431,5.947,5.9487,5.9545,5.9628,5.9678,5.9776,5.9855,5.9929,5.996,5.9943,5.9944,5.9965,5.9963,5.9952,5.9956,5.9718,5.9938,5.9936,5.9935,5.9934,5.9934,5.9241,5.9306,5.936,5.9438,5.9481,5.9533,5.9596,5.9623,5.9693,5.9774,5.9776,5.9866,5.9919,6.0016,6.0051,6.0121,6.0095,6.0126,6.0133,6.014,6.0145,5.9943,6.0135,6.0134,6.0134,6.0134,6.0133,0,5.9427,5.9461,5.9533,5.9611,5.9672,5.9652,5.9712,5.9764,5.9843,5.9895,5.9958,6.0052,6.0129,6.0165,6.0239,6.0288,6.0282,6.0307,6.0302,6.0309,6.0165,6.0139,6.031,6.031,6.031,6.031,6.031,6.031,5.9531,5.9638,5.9651,5.9778,5.9811,5.9899,5.9934,5.9981,6.0022,6.0128,6.0191,6.0214,6.0259,6.0337,6.0405,6.0413,6.044,6.0468,6.0473,6.0338,6.0319,6.0302,6.0277,6.0475,6.0475,6.061,6.0611,6.0612]},{"header":{"parameterUnit":"m.s-1","parameterCategory":1,"la1":30.2991,"la2":30.254,"lo1":-89.0895,"lo2":-89.0444,"dy":0.0017,"dx":0.0017,"nx":28,"ny":28,"refTime":"2023-08-09T21:00:00:Z","depth":0,"parameterNumber":3,"parameterNumberName":"V-component_of_WINDS"},"data":[0,0,0,0,0,0,0,0,0,0,0,0,0,0,0,0,0,0,0,0,0,0,0,0,0,0,0,0,0,0,0,0,0,0,0,0,0,0,0,0,0,0,0,0,0,0,0,0,0,0,0,0,0,0,0,0,0,0,3.0158,3.0158,0,3.0168,3.0168,3.0168,3.011,3.0108,3.0106,3.0105,3.0114,3.0116,3.0118,0,0,0,0,0,0,0,0,0,0,0,0,0,3.0087,3.0089,3.0158,3.0158,3.0158,3.0167,3.0168,3.0168,3.011,3.0108,3.0106,3.0104,3.0114,3.0116,3.0118,0,0,0,0,0,0,0,0,0,0,0,0,0,3.011,3.0089,3.0158,3.013,3.0128,3.0167,3.0168,3.0168,3.011,3.0108,3.0105,3.0103,3.0113,3.0116,3.0118,3.0185,0,0,3.0127,3.0128,0,0,0,0,0,0,0,0,3.0108,3.0112,3.0134,3.0132,3.013,3.0135,3.0146,3.0174,3.0111,3.0117,3.0105,3.0102,3.0123,3.0125,3.0132,3.0185,3.0186,3.0127,3.0129,3.013,3.0131,0,0,0,0,0,0,0,3.0107,3.0111,3.0161,3.0134,3.0132,3.0117,3.0117,3.0151,3.0134,3.0116,3.0112,3.0114,3.0121,3.013,3.0132,3.0186,3.0127,3.0129,3.0131,3.0132,3.0293,3.0295,0,0,0,0,0,0,3.0109,3.0111,3.0161,3.0162,3.0113,3.012,3.0121,3.0136,3.0133,3.0131,3.0116,3.0111,3.0126,3.0129,3.0132,3.0209,3.013,3.0132,3.0134,3.029,3.0293,3.0296,0,0,0,0,0,0,3.0108,3.0114,3.0161,3.0135,3.014,3.0124,3.0141,3.0137,3.0145,3.0133,3.013,3.0128,3.0125,3.0128,3.0172,3.0208,3.0133,3.0136,3.0287,3.0291,3.0295,3.0364,0,0,0,0,0,0,3.0106,3.0114,3.014,3.0136,3.0141,3.0201,3.0144,3.0139,3.015,3.0144,3.0143,3.0141,3.0123,3.0168,3.0175,3.0211,3.0138,3.0284,3.0289,3.0293,3.0358,3.037,3.0379,0,0,0,0,0,3.0104,3.0159,3.0141,3.0148,3.0173,3.0203,3.0206,3.0185,3.0153,3.0178,3.0171,3.0141,3.0204,3.0173,3.018,3.0218,3.0281,3.0287,3.0293,3.0353,3.0367,3.0379,0,0,0,0,0,0,3.0167,3.0158,3.0138,3.0194,3.02,3.0193,3.0224,3.02,3.0215,3.0209,3.0181,3.0181,3.0229,3.0228,3.0194,3.0281,3.0237,3.0244,3.028,3.0293,3.0304,3.0303,3.014,0,0,0,0,0,3.0188,3.0213,3.0204,3.0253,3.0257,3.0241,3.0253,3.0236,3.0241,3.0243,3.0238,3.0244,3.0265,3.0279,3.0298,3.0358,3.0356,3.0387,3.0397,3.0406,3.0413,3.0443,3.0457,3.0316,3.0316,3.0315,0,0,3.023,3.0228,3.0246,3.0266,3.0269,3.0295,3.0243,3.0274,3.0293,3.0247,3.0288,3.0285,3.0289,3.0341,3.0364,3.0341,3.0451,3.0414,3.0421,3.0423,3.0451,3.0464,3.0476,3.032,3.0319,3.0318,0,0,3.0321,3.0322,3.0364,3.0367,3.0372,3.036,3.037,3.0367,3.0363,3.0404,3.0369,3.0392,3.0429,3.0433,3.044,3.0532,3.0505,3.0538,3.0594,3.0624,3.0635,3.0645,3.0677,3.0689,3.0545,3.0545,3.0546,0,3.0373,3.0412,3.0388,3.0421,3.043,3.039,3.0431,3.0435,3.0446,3.0453,3.0428,3.0472,3.0473,3.0525,3.0547,3.0554,3.0564,3.0538,3.0636,3.0645,3.0654,3.0684,3.0696,3.0549,3.0549,3.0549,3.0548,0,3.0475,3.0503,3.0536,3.0547,3.056,3.0597,3.0577,3.0594,3.0575,3.0566,3.0607,3.0606,3.0623,3.0634,3.0616,3.0683,3.0669,3.064,3.0595,3.0672,3.0699,3.0711,3.0555,3.0554,3.0553,3.0552,0,0,3.0607,3.0603,3.0616,3.062,3.0621,3.0642,3.0676,3.0693,3.0707,3.0716,3.0743,3.0775,3.0748,3.0756,3.0738,3.0765,3.0837,3.0733,3.0732,3.0752,3.091,3.0931,3.0945,3.0819,3.0821,3.0823,3.0909,0,3.0695,3.0754,3.0733,3.0793,3.0818,3.078,3.081,3.0814,3.0806,3.0825,3.0816,3.0839,3.0802,3.0807,3.0831,3.0823,3.0868,3.0816,3.0844,3.0845,3.0844,3.0959,3.0982,3.1064,3.092,3.0922,3.0923,0,3.0806,3.0818,3.0881,3.0878,3.0887,3.0915,3.0928,3.0947,3.095,3.0943,3.0952,3.0928,3.0961,3.0916,3.0961,3.0927,3.0937,3.0934,3.0937,3.0938,3.0889,3.0963,3.1089,3.1101,3.094,3.0939,3.0937,0,3.0894,3.0927,3.0968,3.0973,3.097,3.099,3.099,3.0991,3.1002,3.1014,3.102,3.1036,3.1044,3.1056,3.1037,3.1006,3.1085,3.1038,3.1079,3.1079,3.1096,3.1096,3.1225,3.1104,3.1104,3.1104,3.1103,0,3.0995,3.1035,3.1008,3.1034,3.1077,3.1052,3.1095,3.109,3.1091,3.1115,3.1083,3.1105,3.1079,3.1099,3.1084,3.1123,3.1128,3.1122,3.1117,3.1125,3.1125,3.113,3.1124,3.1107,3.1106,3.1106,3.1105,0,3.1101,3.1085,3.1127,3.1121,3.112,3.1152,3.1146,3.1169,3.1159,3.1189,3.1195,3.1179,3.1201,3.1183,3.1205,3.1194,3.1246,3.1234,3.1245,3.1241,3.1282,3.1278,3.1419,3.1436,3.1305,3.1306,3.1307,0,3.1166,3.1195,3.1192,3.1205,3.1207,3.1229,3.124,3.1217,3.1229,3.1235,3.1257,3.1276,3.129,3.1327,3.1317,3.1333,3.1321,3.1369,3.1323,3.1329,3.1321,3.1319,3.1321,3.1378,3.138,3.1381,3.1382,0,3.1282,3.1273,3.129,3.1304,3.1318,3.1329,3.1336,3.1349,3.1325,3.1341,3.1363,3.1374,3.1395,3.1414,3.1427,3.1426,3.14,3.1397,3.1407,3.1414,3.1419,3.1416,3.127,3.1394,3.1392,3.1392,3.1391,3.1391,3.1369,3.1393,3.1394,3.1414,3.1418,3.1425,3.1446,3.1439,3.1457,3.1472,3.1457,3.1483,3.1485,3.15,3.1502,3.1522,3.1502,3.1517,3.152,3.1524,3.153,3.1416,3.1524,3.1524,3.1523,3.1523,3.1523,0,3.1483,3.1482,3.1501,3.1512,3.1528,3.1502,3.1509,3.1524,3.1547,3.1551,3.1565,3.159,3.1609,3.16,3.1616,3.1634,3.1622,3.1638,3.1637,3.1637,3.1547,3.1536,3.1648,3.1647,3.1647,3.1647,3.1647,3.1647,3.1544,3.1584,3.1574,3.1614,3.1612,3.1638,3.1644,3.1651,3.1654,3.1683,3.1698,3.1692,3.1691,3.1706,3.1722,3.1719,3.1726,3.1747,3.1739,3.1655,3.1643,3.1631,3.1621,3.1748,3.1749,3.1827,3.1828,3.1828]}]]